LiveATC.Net - Listen to live air traffic control over the Internet!


ICAO: LPMA  IATA: FNC   Airport: Madeira International Airport
City: Madeira
Country: Portugal   Continent: Europe
LPMA METAR Weather: LPMA 060530Z 02007KT 340V060 9999 BKN016 20/13 Q1023
LPMA Flight Activity (FlightAware)

LPMA App/LPPC Center
Feed Status: DOWN
Last heard on: 2022-03-27 11:32:06 (100 days 18 hours 47 minutes ago)
Archive Access: LPMA App/LPPC Center
FacilityFrequency
Lisboa Control (Madeira Sector)132.255
Madeira Approach119.605

LPMA Approach
Feed Status: UP   Listeners: 1
Listen in your browser - HTML5 player (in browser, HTML5)
Click here to listen with your own player (launches your MP3 player)
Archive Access: LPMA Approach
FacilityFrequency
Madeira Approach119.605

NOTICE

Unauthorized use prohibited. See LiveATC.net Terms of Service


Airport/ARTCC Code
Frequency Search
(e.g., 124.400, 128.75)
Site-wide search
 


Browse Feeds
Top 50 Feeds
HF Oceanic Feeds
Coverage Map
Bad Weather Areas

LiveATC FAQ
Offer LiveATC feed
Contact LiveATC.net
Press Inquiries

LiveATC on iPhone
LiveATC on Android

LiveATC Mobile
(Mobile browser)

ATC Audio Archives
Interesting Recordings

LiveATC Forums


Home Page
About LiveATC.net


Terms of Use
Privacy Policy

AIRMETs/SIGMETs

FAA Airport Status
NAS Status
Arrival Demand


Server Software By:
Icecast.org
Liquidsoap